Location: Haut Kerinec
(48.0623°N, 4.4081°W)
Time: 22:35:21
(UTC+00:00)

STARLINK-1254 - Pass Details

Date: 08 October 2020
Orbit: 548 x 551 km, 53.0° (Epoch: 26 October)

Event Time Altitude Azimuth Distance (km) Brightness Sun altitude
Rises 20:53:06 0° 251° (WSW) 2,710 7.7 -31.8°
Reaches altitude 10° 20:55:20 10° 254° (WSW) 1,819 6.7 -32.1°
Enters shadow 20:55:55 14° 255° (WSW) 1,592 6.4 -32.2°
